UAL326 KIAD-KSEA

Flight info

Callsign UAL326
Flight time 5h 14m
Altitude 36000
Route MCRAY2 MCRAY Q178 DJB J34 RWF KP06Y LWT MLP GLASR3
Aircraft B739/M-SDE2E3FGHIRWXY/LB1

Departure

Time 2026-05-07 17:44
Airport Washington Dulles International Airport (KIAD)

Arrival

Time 2026-05-07 22:58
Airport Seattle–Tacoma International Airport (KSEA)
Time Latitude Longitude Altitude Speed Heading
2026-05-07 17:16 38.94586 -77.45101 299 ft 0 kts 180°
2026-05-07 17:36 38.94601 -77.45101 301 ft 4 kts 180°
2026-05-07 17:36 38.94628 -77.45101 299 ft 4 kts 180°
2026-05-07 17:36 38.94649 -77.45101 302 ft 4 kts 201°
2026-05-07 17:36 38.94660 -77.45084 299 ft 3 kts 270°
2026-05-07 17:37 38.94660 -77.45053 299 ft 2 kts 270°
2026-05-07 17:37 38.94660 -77.45051 299 ft 0 kts 270°
2026-05-07 17:38 38.94660 -77.45052 299 ft 1 kts 270°
2026-05-07 17:39 38.94661 -77.45091 299 ft 8 kts 270°
2026-05-07 17:39 38.94661 -77.45177 299 ft 11 kts 270°
2026-05-07 17:39 38.94662 -77.45287 299 ft 14 kts 270°
2026-05-07 17:39 38.94663 -77.45414 299 ft 15 kts 270°
2026-05-07 17:40 38.94663 -77.45544 299 ft 14 kts 267°
2026-05-07 17:40 38.94591 -77.45611 299 ft 15 kts 181°
2026-05-07 17:40 38.94480 -77.45612 300 ft 17 kts 180°
2026-05-07 17:40 38.94355 -77.45613 302 ft 19 kts 180°
2026-05-07 17:41 38.94218 -77.45614 301 ft 20 kts 180°
2026-05-07 17:41 38.94079 -77.45615 299 ft 20 kts 180°
2026-05-07 17:41 38.93945 -77.45616 299 ft 19 kts 181°
2026-05-07 17:41 38.93816 -77.45619 299 ft 18 kts 181°
2026-05-07 17:42 38.93694 -77.45598 300 ft 18 kts 141°
2026-05-07 17:42 38.93605 -77.45498 302 ft 17 kts 173°
2026-05-07 17:42 38.93494 -77.45540 301 ft 16 kts 200°
2026-05-07 17:42 38.93390 -77.45609 299 ft 18 kts 231°
2026-05-07 17:43 38.93442 -77.45875 298 ft 62 kts 290°
2026-05-07 17:43 38.93676 -77.46674 304 ft 127 kts 290°
2026-05-07 17:43 38.94052 -77.47952 303 ft 178 kts 290°
2026-05-07 17:43 38.94512 -77.49523 720 ft 191 kts 290°
2026-05-07 17:44 38.95054 -77.51100 1452 ft 188 kts 312°
2026-05-07 17:44 38.96128 -77.52001 2130 ft 193 kts 338°
2026-05-07 17:44 38.97446 -77.52712 2368 ft 216 kts 337°
2026-05-07 17:44 38.98875 -77.53501 2700 ft 229 kts 337°
2026-05-07 17:45 39.00337 -77.54329 3109 ft 238 kts 336°
2026-05-07 17:45 39.01908 -77.55232 3446 ft 253 kts 335°
2026-05-07 17:45 39.03521 -77.56175 4132 ft 253 kts 334°
2026-05-07 17:45 39.05112 -77.57110 5058 ft 249 kts 333°
2026-05-07 17:46 39.06689 -77.58056 5825 ft 252 kts 332°
2026-05-07 17:46 39.08292 -77.59027 6561 ft 256 kts 331°
2026-05-07 17:46 39.09769 -77.59920 7094 ft 260 kts 330°
2026-05-07 17:47 39.11424 -77.60923 7643 ft 264 kts 329°
2026-05-07 17:47 39.13103 -77.61943 8175 ft 269 kts 328°
2026-05-07 17:47 39.14803 -77.62978 8774 ft 272 kts 327°
2026-05-07 17:47 39.16533 -77.64033 9351 ft 277 kts 327°
2026-05-07 17:48 39.18284 -77.65101 9918 ft 280 kts 326°
2026-05-07 17:48 39.20070 -77.66195 10288 ft 291 kts 326°
2026-05-07 17:48 39.21961 -77.67361 10420 ft 310 kts 326°
2026-05-07 17:48 39.23968 -77.68596 10572 ft 329 kts 327°
2026-05-07 17:49 39.26059 -77.69879 10697 ft 346 kts 327°
2026-05-07 17:49 39.28287 -77.71242 10866 ft 362 kts 327°
2026-05-07 17:49 39.30608 -77.72659 11121 ft 373 kts 328°
2026-05-07 17:49 39.32973 -77.74100 11586 ft 378 kts 327°
2026-05-07 17:50 39.35351 -77.75553 12124 ft 379 kts 327°
2026-05-07 17:50 39.37750 -77.77025 12641 ft 382 kts 327°
2026-05-07 17:50 39.40177 -77.78494 13110 ft 387 kts 328°
2026-05-07 17:50 39.42663 -77.79892 13577 ft 392 kts 329°
2026-05-07 17:51 39.45195 -77.81284 14001 ft 395 kts 329°
2026-05-07 17:51 39.47727 -77.82687 14498 ft 396 kts 329°
2026-05-07 17:51 39.50224 -77.84086 14985 ft 396 kts 327°
2026-05-07 17:51 39.52537 -77.85918 15402 ft 384 kts 311°
2026-05-07 17:52 39.54307 -77.88429 15888 ft 372 kts 298°
2026-05-07 17:52 39.55526 -77.91335 16359 ft 365 kts 287°
2026-05-07 17:52 39.56472 -77.94383 16800 ft 365 kts 286°
2026-05-07 17:52 39.57394 -77.97473 17246 ft 367 kts 285°
2026-05-07 17:53 39.57999 -77.99520 17536 ft 368 kts 285°
2026-05-07 17:53 39.58918 -78.02614 18012 ft 369 kts 286°
2026-05-07 17:53 39.59848 -78.05721 18428 ft 370 kts 286°
2026-05-07 17:53 39.60785 -78.08830 18842 ft 370 kts 285°
2026-05-07 17:54 39.61727 -78.11943 19234 ft 370 kts 285°
2026-05-07 17:54 39.62671 -78.15051 19652 ft 371 kts 285°
2026-05-07 17:54 39.63617 -78.18164 20072 ft 371 kts 285°
2026-05-07 17:54 39.64565 -78.21283 20457 ft 372 kts 285°
2026-05-07 17:55 39.65515 -78.24417 20811 ft 374 kts 285°
2026-05-07 17:55 39.66471 -78.27568 21173 ft 375 kts 285°
2026-05-07 17:55 39.67428 -78.30724 21531 ft 376 kts 284°
2026-05-07 17:55 39.68385 -78.33887 21898 ft 377 kts 284°
2026-05-07 17:56 39.69332 -78.37015 22237 ft 378 kts 284°
2026-05-07 17:56 39.70293 -78.40198 22546 ft 380 kts 284°
2026-05-07 17:56 39.71259 -78.43405 22855 ft 382 kts 284°
2026-05-07 17:56 39.72230 -78.46626 23196 ft 383 kts 284°
2026-05-07 17:57 39.73204 -78.49863 23514 ft 385 kts 284°
2026-05-07 17:57 39.74178 -78.53104 23786 ft 386 kts 284°
2026-05-07 17:57 39.75156 -78.56360 24038 ft 387 kts 284°
2026-05-07 17:57 39.76136 -78.59625 24348 ft 387 kts 284°
2026-05-07 17:58 39.77113 -78.62885 24623 ft 388 kts 284°
2026-05-07 17:58 39.78092 -78.66156 24930 ft 388 kts 283°
2026-05-07 17:58 39.79072 -78.69436 25190 ft 389 kts 283°
2026-05-07 17:58 39.80039 -78.72679 25457 ft 390 kts 283°
2026-05-07 17:59 39.81022 -78.75974 25794 ft 389 kts 283°
2026-05-07 17:59 39.81999 -78.79257 26019 ft 391 kts 283°
2026-05-07 17:59 39.82988 -78.82587 26180 ft 394 kts 283°
2026-05-07 17:59 39.83975 -78.85912 26455 ft 394 kts 283°
2026-05-07 18:00 39.84961 -78.89234 26705 ft 394 kts 283°
2026-05-07 18:00 39.85946 -78.92557 26952 ft 394 kts 283°
2026-05-07 18:00 39.86933 -78.95892 27258 ft 393 kts 283°
2026-05-07 18:00 39.87900 -78.99159 27626 ft 390 kts 282°
2026-05-07 18:01 39.88871 -79.02444 28008 ft 388 kts 282°
2026-05-07 18:01 39.89835 -79.05715 28346 ft 386 kts 282°
2026-05-07 18:01 39.90795 -79.08977 28657 ft 386 kts 282°
2026-05-07 18:01 39.91757 -79.12249 29002 ft 384 kts 282°
2026-05-07 18:02 39.93660 -79.18736 29673 ft 382 kts 282°
2026-05-07 18:02 39.94607 -79.21970 29980 ft 381 kts 282°
2026-05-07 18:02 39.95549 -79.25193 30240 ft 380 kts 282°
2026-05-07 18:03 39.96491 -79.28417 30466 ft 380 kts 282°
2026-05-07 18:03 39.97432 -79.31643 30671 ft 380 kts 282°
2026-05-07 18:03 39.98359 -79.34822 30886 ft 380 kts 282°
2026-05-07 18:03 39.99295 -79.38036 31147 ft 379 kts 282°
2026-05-07 18:04 40.00331 -79.41212 31393 ft 383 kts 287°
2026-05-07 18:04 40.01667 -79.44271 31595 ft 392 kts 293°
2026-05-07 18:04 40.03201 -79.47220 31809 ft 393 kts 293°
2026-05-07 18:04 40.04738 -79.50168 32020 ft 392 kts 293°
2026-05-07 18:05 40.06272 -79.53119 32238 ft 392 kts 293°
2026-05-07 18:05 40.07796 -79.56066 32465 ft 391 kts 293°
2026-05-07 18:05 40.09314 -79.59011 32671 ft 390 kts 293°
2026-05-07 18:05 40.10827 -79.61956 32872 ft 389 kts 293°
2026-05-07 18:06 40.12334 -79.64894 33072 ft 389 kts 293°
2026-05-07 18:06 40.13837 -79.67828 33275 ft 388 kts 293°
2026-05-07 18:06 40.15337 -79.70759 33464 ft 387 kts 293°
2026-05-07 18:06 40.16814 -79.73650 33646 ft 387 kts 293°
2026-05-07 18:07 40.18306 -79.76572 33817 ft 386 kts 293°
2026-05-07 18:07 40.19796 -79.79493 33969 ft 386 kts 293°
2026-05-07 18:07 40.21283 -79.82413 34096 ft 385 kts 293°
2026-05-07 18:07 40.22770 -79.85333 34198 ft 386 kts 293°
2026-05-07 18:08 40.24262 -79.88267 34282 ft 386 kts 293°
2026-05-07 18:08 40.25751 -79.91199 34390 ft 387 kts 294°
2026-05-07 18:08 40.27243 -79.94136 34499 ft 387 kts 294°
2026-05-07 18:09 40.30225 -80.00017 34687 ft 387 kts 294°
2026-05-07 18:09 40.31665 -80.02860 34807 ft 387 kts 294°
2026-05-07 18:09 40.33153 -80.05798 34931 ft 386 kts 294°
2026-05-07 18:09 40.34634 -80.08733 35066 ft 386 kts 294°
2026-05-07 18:10 40.36116 -80.11677 35198 ft 385 kts 294°
2026-05-07 18:10 40.37589 -80.14609 35326 ft 384 kts 294°
2026-05-07 18:10 40.39057 -80.17531 35430 ft 383 kts 294°
2026-05-07 18:10 40.40525 -80.20459 35552 ft 382 kts 294°
2026-05-07 18:11 40.41985 -80.23372 35650 ft 382 kts 294°
2026-05-07 18:11 40.44901 -80.29200 35685 ft 386 kts 294°
2026-05-07 18:12 40.47852 -80.35101 35829 ft 386 kts 294°
2026-05-07 18:12 40.49328 -80.38053 35934 ft 385 kts 294°
2026-05-07 18:12 40.50796 -80.40995 35926 ft 386 kts 294°
2026-05-07 18:13 40.53752 -80.46932 35954 ft 389 kts 294°
2026-05-07 18:13 40.56720 -80.52899 35969 ft 393 kts 294°
2026-05-07 18:14 40.59723 -80.58949 35966 ft 397 kts 294°
2026-05-07 18:14 40.62742 -80.65056 35950 ft 399 kts 294°
2026-05-07 18:15 40.65772 -80.71198 35967 ft 400 kts 294°
2026-05-07 18:15 40.68807 -80.77353 35969 ft 400 kts 295°
2026-05-07 18:16 40.71841 -80.83496 35968 ft 399 kts 295°
2026-05-07 18:16 40.74858 -80.89616 35974 ft 397 kts 294°
2026-05-07 18:17 40.77857 -80.95717 35971 ft 396 kts 295°
2026-05-07 18:17 40.80824 -81.01766 35966 ft 394 kts 295°
2026-05-07 18:18 40.83797 -81.07839 35971 ft 393 kts 295°
2026-05-07 18:18 40.86761 -81.13903 35972 ft 392 kts 295°
2026-05-07 18:19 40.89713 -81.19965 35964 ft 392 kts 295°
2026-05-07 18:19 40.92658 -81.26028 35966 ft 392 kts 295°
2026-05-07 18:20 40.95590 -81.32076 35971 ft 392 kts 295°
2026-05-07 18:20 40.98534 -81.38162 35970 ft 393 kts 295°
2026-05-07 18:21 41.01481 -81.44264 35961 ft 394 kts 295°
2026-05-07 18:21 41.04433 -81.50390 35956 ft 394 kts 295°
2026-05-07 18:22 41.07384 -81.56522 35959 ft 394 kts 295°
2026-05-07 18:22 41.10044 -81.62061 35958 ft 394 kts 295°
2026-05-07 18:23 41.12990 -81.68204 35966 ft 394 kts 295°
2026-05-07 18:23 41.15931 -81.74349 35971 ft 394 kts 295°
2026-05-07 18:24 41.18861 -81.80483 35978 ft 393 kts 295°
2026-05-07 18:24 41.21785 -81.86618 35970 ft 393 kts 295°
2026-05-07 18:25 41.24704 -81.92754 35972 ft 392 kts 295°
2026-05-07 18:25 41.27616 -81.98888 35999 ft 392 kts 295°
2026-05-07 18:26 41.30501 -82.04978 35992 ft 391 kts 295°
2026-05-07 18:26 41.33400 -82.11110 35992 ft 391 kts 295°
2026-05-07 18:27 41.36319 -82.17218 35991 ft 392 kts 297°
2026-05-07 18:27 41.39517 -82.23147 35998 ft 394 kts 298°
2026-05-07 18:28 41.42767 -82.29032 35995 ft 394 kts 298°
2026-05-07 18:28 41.45970 -82.34906 35993 ft 394 kts 298°
2026-05-07 18:29 41.49181 -82.40836 35994 ft 394 kts 298°
2026-05-07 18:29 41.52396 -82.46788 35990 ft 395 kts 298°
2026-05-07 18:30 41.55603 -82.52744 35984 ft 395 kts 298°
2026-05-07 18:30 41.58812 -82.58721 35986 ft 396 kts 298°
2026-05-07 18:31 41.62007 -82.64684 35975 ft 397 kts 298°
2026-05-07 18:31 41.65224 -82.70698 35975 ft 397 kts 298°
2026-05-07 18:32 41.68444 -82.76728 35978 ft 398 kts 298°
2026-05-07 18:32 41.71634 -82.82718 35978 ft 398 kts 298°
2026-05-07 18:33 41.74847 -82.88771 35975 ft 398 kts 298°
2026-05-07 18:33 41.78063 -82.94843 35977 ft 399 kts 298°
2026-05-07 18:34 41.81272 -83.00915 35974 ft 399 kts 298°
2026-05-07 18:34 41.84481 -83.06997 35969 ft 400 kts 298°
2026-05-07 18:35 41.85943 -83.09771 35969 ft 400 kts 298°
2026-05-07 18:35 41.89232 -83.16024 35967 ft 401 kts 298°
2026-05-07 18:36 41.92421 -83.22100 35983 ft 401 kts 298°
2026-05-07 18:36 41.94492 -83.26051 35983 ft 401 kts 298°
2026-05-07 18:37 41.97707 -83.32195 35987 ft 402 kts 298°
2026-05-07 18:37 42.00843 -83.38202 35982 ft 402 kts 298°
2026-05-07 18:38 42.04060 -83.44374 35985 ft 402 kts 297°
2026-05-07 18:38 42.06755 -83.50869 35992 ft 396 kts 291°
2026-05-07 18:39 42.09215 -83.57515 35981 ft 397 kts 291°
2026-05-07 18:39 42.11674 -83.64137 35979 ft 398 kts 291°
2026-05-07 18:40 42.14156 -83.70809 35973 ft 398 kts 291°
2026-05-07 18:40 42.16219 -83.76355 35976 ft 399 kts 291°
2026-05-07 18:41 42.18703 -83.83044 35973 ft 399 kts 291°
2026-05-07 18:41 42.21185 -83.89745 35974 ft 399 kts 291°
2026-05-07 18:42 42.23668 -83.96464 35978 ft 400 kts 291°
2026-05-07 18:42 42.26145 -84.03184 35983 ft 400 kts 291°
2026-05-07 18:43 42.28620 -84.09914 35978 ft 400 kts 291°
2026-05-07 18:43 42.31091 -84.16651 36000 ft 400 kts 291°
2026-05-07 18:44 42.33560 -84.23396 35996 ft 400 kts 291°
2026-05-07 18:44 42.36011 -84.30110 35983 ft 401 kts 291°
2026-05-07 18:45 42.37438 -84.34024 36001 ft 401 kts 291°
2026-05-07 18:45 42.39642 -84.40084 35992 ft 401 kts 291°
2026-05-07 18:46 42.42106 -84.46871 35983 ft 402 kts 291°
2026-05-07 18:46 42.44569 -84.53672 35988 ft 402 kts 291°
2026-05-07 18:47 42.47013 -84.60441 35981 ft 403 kts 291°
2026-05-07 18:47 42.49471 -84.67265 35985 ft 403 kts 291°
2026-05-07 18:48 42.51928 -84.74101 35975 ft 404 kts 291°
2026-05-07 18:48 42.54391 -84.80973 35975 ft 404 kts 291°
2026-05-07 18:49 42.56849 -84.87844 35974 ft 405 kts 291°
2026-05-07 18:49 42.59292 -84.94695 35974 ft 405 kts 291°
2026-05-07 18:50 42.61750 -85.01602 35982 ft 406 kts 291°
2026-05-07 18:50 42.64199 -85.08503 35987 ft 406 kts 291°
2026-05-07 18:51 42.66652 -85.15428 35989 ft 407 kts 291°
2026-05-07 18:51 42.69085 -85.22313 36007 ft 407 kts 291°
2026-05-07 18:52 42.71530 -85.29253 35998 ft 407 kts 291°
2026-05-07 18:52 42.73976 -85.36210 35992 ft 407 kts 291°
2026-05-07 18:53 42.76416 -85.43165 35995 ft 407 kts 291°
2026-05-07 18:53 42.78661 -85.50237 35990 ft 404 kts 284°
2026-05-07 18:54 42.79775 -85.57645 35994 ft 402 kts 278°
2026-05-07 18:54 42.80717 -85.65159 35993 ft 403 kts 278°
2026-05-07 18:55 42.81197 -85.68918 35996 ft 403 kts 278°
2026-05-07 18:55 42.82101 -85.75966 35995 ft 404 kts 278°
2026-05-07 18:56 42.83068 -85.83515 36013 ft 405 kts 278°
2026-05-07 18:56 42.84032 -85.91078 36015 ft 405 kts 278°
2026-05-07 18:57 42.84993 -85.98657 36016 ft 406 kts 278°
2026-05-07 18:57 42.85944 -86.06201 36014 ft 406 kts 278°
2026-05-07 18:58 42.86898 -86.13792 36019 ft 406 kts 278°
2026-05-07 18:58 42.87849 -86.21391 36020 ft 406 kts 278°
2026-05-07 18:59 42.88792 -86.28979 36015 ft 406 kts 278°
2026-05-07 18:59 42.89726 -86.36529 36015 ft 406 kts 278°
2026-05-07 19:00 42.90660 -86.44129 36016 ft 406 kts 278°
2026-05-07 19:00 42.91589 -86.51726 36009 ft 406 kts 278°
2026-05-07 19:01 42.92514 -86.59331 36007 ft 406 kts 278°
2026-05-07 19:01 42.93433 -86.66941 36006 ft 406 kts 278°
2026-05-07 19:02 42.94347 -86.74542 36000 ft 406 kts 278°
2026-05-07 19:02 42.95256 -86.82157 35998 ft 406 kts 278°
2026-05-07 19:03 42.96156 -86.89729 35992 ft 406 kts 278°
2026-05-07 19:03 42.97056 -86.97352 35986 ft 406 kts 278°
2026-05-07 19:04 42.97951 -87.04976 35986 ft 407 kts 278°
2026-05-07 19:04 42.98843 -87.12622 35987 ft 406 kts 278°
2026-05-07 19:05 42.99300 -87.16562 35987 ft 406 kts 278°
2026-05-07 19:05 43.00131 -87.23747 35986 ft 406 kts 278°
2026-05-07 19:06 43.01010 -87.31393 35988 ft 406 kts 278°
2026-05-07 19:06 43.02316 -87.42837 35988 ft 406 kts 278°
2026-05-07 19:07 43.03172 -87.50402 35984 ft 405 kts 278°
2026-05-07 19:07 43.03872 -87.56619 35975 ft 405 kts 278°
2026-05-07 19:08 43.04726 -87.64247 35972 ft 405 kts 278°
2026-05-07 19:08 43.05575 -87.71872 35970 ft 406 kts 278°
2026-05-07 19:09 43.06419 -87.79504 35964 ft 406 kts 278°
2026-05-07 19:09 43.07258 -87.87144 35963 ft 407 kts 278°
2026-05-07 19:10 43.08096 -87.94813 35963 ft 408 kts 278°
2026-05-07 19:10 43.08924 -88.02451 35961 ft 409 kts 278°
2026-05-07 19:11 43.09754 -88.10149 35960 ft 409 kts 278°
2026-05-07 19:11 43.10580 -88.17850 35937 ft 409 kts 278°
2026-05-07 19:12 43.11405 -88.25557 35934 ft 409 kts 279°
2026-05-07 19:12 43.13023 -88.33013 35940 ft 409 kts 291°
2026-05-07 19:13 43.15213 -88.40162 35945 ft 409 kts 291°
2026-05-07 19:13 43.17397 -88.47366 35946 ft 410 kts 291°
2026-05-07 19:14 43.19568 -88.54600 35945 ft 410 kts 291°
2026-05-07 19:14 43.21361 -88.60605 35954 ft 410 kts 290°
2026-05-07 19:15 43.22665 -88.64987 35952 ft 410 kts 291°
2026-05-07 19:15 43.24816 -88.72226 35956 ft 410 kts 291°
2026-05-07 19:16 43.26950 -88.79429 35954 ft 409 kts 291°
2026-05-07 19:16 43.29089 -88.86667 35945 ft 409 kts 291°
2026-05-07 19:17 43.31225 -88.93916 35945 ft 409 kts 291°
2026-05-07 19:17 43.33359 -89.01180 35942 ft 409 kts 291°
2026-05-07 19:18 43.35487 -89.08444 35935 ft 410 kts 291°
2026-05-07 19:18 43.37612 -89.15720 35933 ft 410 kts 291°
2026-05-07 19:19 43.39734 -89.23005 35934 ft 411 kts 291°
2026-05-07 19:19 43.41856 -89.30311 35931 ft 411 kts 291°
2026-05-07 19:20 43.43963 -89.37584 35928 ft 412 kts 291°
2026-05-07 19:20 43.46079 -89.44913 35930 ft 412 kts 291°
2026-05-07 19:21 43.48193 -89.52256 35925 ft 412 kts 291°
2026-05-07 19:21 43.50300 -89.59594 35929 ft 412 kts 291°
2026-05-07 19:22 43.52391 -89.66900 35913 ft 412 kts 291°
2026-05-07 19:22 43.54500 -89.74289 35917 ft 412 kts 291°
2026-05-07 19:23 43.56342 -89.81702 35924 ft 411 kts 287°
2026-05-07 19:23 43.57976 -89.89273 35919 ft 411 kts 287°
2026-05-07 19:24 43.59609 -89.96833 35915 ft 411 kts 287°
2026-05-07 19:24 43.60980 -90.03118 35925 ft 411 kts 287°
2026-05-07 19:25 43.61951 -90.07565 35925 ft 411 kts 287°
2026-05-07 19:25 43.63600 -90.15125 35928 ft 411 kts 287°
2026-05-07 19:26 43.65243 -90.22692 35928 ft 411 kts 287°
2026-05-07 19:26 43.66601 -90.28995 35930 ft 411 kts 287°
2026-05-07 19:27 43.68489 -90.37805 35928 ft 411 kts 287°
2026-05-07 19:27 43.70108 -90.45393 35929 ft 411 kts 287°
2026-05-07 19:28 43.71461 -90.51748 35935 ft 411 kts 287°
2026-05-07 19:28 43.73060 -90.59289 35934 ft 411 kts 287°
2026-05-07 19:29 43.74666 -90.66887 35928 ft 411 kts 287°
2026-05-07 19:29 43.76266 -90.74484 35920 ft 412 kts 287°
2026-05-07 19:30 43.77864 -90.82100 35915 ft 412 kts 287°
2026-05-07 19:30 43.79456 -90.89717 35922 ft 412 kts 287°
2026-05-07 19:31 43.81044 -90.97343 35955 ft 413 kts 287°
2026-05-07 19:31 43.82632 -91.04996 36104 ft 414 kts 287°
2026-05-07 19:32 43.84221 -91.12684 36178 ft 416 kts 287°
2026-05-07 19:32 43.85803 -91.20368 36264 ft 417 kts 287°
2026-05-07 19:33 43.87395 -91.28125 36312 ft 419 kts 287°
2026-05-07 19:33 43.88986 -91.35913 36377 ft 420 kts 287°
2026-05-07 19:34 43.90575 -91.43715 36423 ft 421 kts 287°
2026-05-07 19:34 43.92088 -91.51562 36509 ft 421 kts 284°
2026-05-07 19:35 43.92695 -91.55155 36528 ft 422 kts 284°
2026-05-07 19:35 43.93986 -91.63101 36560 ft 422 kts 284°
2026-05-07 19:36 43.95287 -91.71068 36586 ft 423 kts 284°
2026-05-07 19:36 43.96597 -91.78999 36600 ft 424 kts 284°
2026-05-07 19:37 43.97918 -91.86984 36641 ft 424 kts 284°
2026-05-07 19:37 43.99234 -91.94964 36678 ft 424 kts 284°
2026-05-07 19:38 44.00546 -92.02950 36692 ft 424 kts 284°
2026-05-07 19:38 44.01851 -92.10941 36722 ft 424 kts 284°
2026-05-07 19:39 44.03146 -92.18907 36757 ft 424 kts 284°
2026-05-07 19:39 44.04440 -92.26902 36761 ft 424 kts 284°
2026-05-07 19:40 44.05731 -92.34922 36757 ft 425 kts 284°
2026-05-07 19:40 44.07017 -92.42943 36759 ft 425 kts 284°
2026-05-07 19:41 44.08290 -92.50926 36763 ft 425 kts 284°
2026-05-07 19:41 44.09565 -92.58961 36766 ft 425 kts 284°
2026-05-07 19:42 44.10832 -92.66978 36783 ft 424 kts 284°
2026-05-07 19:42 44.12092 -92.74996 36791 ft 424 kts 284°
2026-05-07 19:43 44.13348 -92.83021 36799 ft 424 kts 284°
2026-05-07 19:43 44.14587 -92.90984 36807 ft 423 kts 284°
2026-05-07 19:44 44.15829 -92.98997 36816 ft 423 kts 284°
2026-05-07 19:44 44.17063 -93.07006 36805 ft 423 kts 284°
2026-05-07 19:45 44.17585 -93.10407 36810 ft 422 kts 284°
2026-05-07 19:45 44.18812 -93.18422 36803 ft 422 kts 284°
2026-05-07 19:46 44.20032 -93.26430 36810 ft 422 kts 284°
2026-05-07 19:46 44.21245 -93.34434 36814 ft 422 kts 284°
2026-05-07 19:47 44.22451 -93.42435 36840 ft 422 kts 284°
2026-05-07 19:47 44.23644 -93.50387 36867 ft 421 kts 284°
2026-05-07 19:48 44.24837 -93.58380 36872 ft 421 kts 284°
2026-05-07 19:48 44.26027 -93.66389 36871 ft 421 kts 284°
2026-05-07 19:49 44.27209 -93.74389 36876 ft 421 kts 284°
2026-05-07 19:49 44.28378 -93.82338 36889 ft 420 kts 284°
2026-05-07 19:50 44.29547 -93.90327 36899 ft 420 kts 284°
2026-05-07 19:50 44.30711 -93.98334 36901 ft 420 kts 284°
2026-05-07 19:51 44.31866 -94.06324 36913 ft 420 kts 284°
2026-05-07 19:51 44.33017 -94.14319 36921 ft 420 kts 284°
2026-05-07 19:52 44.34161 -94.22313 36917 ft 420 kts 284°
2026-05-07 19:52 44.35302 -94.30316 36924 ft 419 kts 284°
2026-05-07 19:53 44.36434 -94.38306 36928 ft 419 kts 284°
2026-05-07 19:53 44.37560 -94.46297 36977 ft 418 kts 284°
2026-05-07 19:54 44.38672 -94.54232 36980 ft 418 kts 284°
2026-05-07 19:54 44.39785 -94.62213 36992 ft 418 kts 284°
2026-05-07 19:55 44.40893 -94.70206 36999 ft 418 kts 284°
2026-05-07 19:55 44.41994 -94.78187 37030 ft 418 kts 284°
2026-05-07 19:56 44.42509 -94.81932 37015 ft 418 kts 284°
2026-05-07 19:56 44.43602 -94.89920 37024 ft 418 kts 284°
2026-05-07 19:57 44.44682 -94.97858 37033 ft 418 kts 284°
2026-05-07 19:57 44.45766 -95.05856 37037 ft 418 kts 284°
2026-05-07 19:58 44.46938 -95.13811 37017 ft 416 kts 289°
2026-05-07 19:58 44.48884 -95.21419 37024 ft 414 kts 292°
2026-05-07 19:59 44.50874 -95.28999 37049 ft 414 kts 292°
2026-05-07 19:59 44.52845 -95.36595 37081 ft 414 kts 292°
2026-05-07 20:00 44.54784 -95.44132 37093 ft 414 kts 292°
2026-05-07 20:00 44.56729 -95.51732 37112 ft 414 kts 292°
2026-05-07 20:01 44.58671 -95.59350 37115 ft 414 kts 291°
2026-05-07 20:01 44.60609 -95.66973 37109 ft 415 kts 291°
2026-05-07 20:02 44.62544 -95.74613 37115 ft 415 kts 291°
2026-05-07 20:02 44.64461 -95.82206 37123 ft 415 kts 291°
2026-05-07 20:03 44.66385 -95.89850 37126 ft 415 kts 291°
2026-05-07 20:03 44.68303 -95.97497 37127 ft 415 kts 291°
2026-05-07 20:04 44.70217 -96.05152 37130 ft 415 kts 291°
2026-05-07 20:04 44.72125 -96.12808 37133 ft 415 kts 291°
2026-05-07 20:05 44.74030 -96.20477 37141 ft 415 kts 291°
2026-05-07 20:05 44.75931 -96.28159 37152 ft 415 kts 291°
2026-05-07 20:06 44.76640 -96.31027 37158 ft 416 kts 291°
2026-05-07 20:06 44.78536 -96.38726 37167 ft 416 kts 291°
2026-05-07 20:07 44.80428 -96.46428 37187 ft 416 kts 291°
2026-05-07 20:07 44.82312 -96.54126 37214 ft 416 kts 291°
2026-05-07 20:08 44.84193 -96.61841 37240 ft 416 kts 291°
2026-05-07 20:08 44.86067 -96.69552 37277 ft 416 kts 291°
2026-05-07 20:09 44.87939 -96.77281 37280 ft 416 kts 291°
2026-05-07 20:10 44.90727 -96.88841 37285 ft 417 kts 291°
2026-05-07 20:10 44.92588 -96.96589 37298 ft 417 kts 291°
2026-05-07 20:11 44.94445 -97.04350 37312 ft 417 kts 291°
2026-05-07 20:11 44.96299 -97.12126 37324 ft 418 kts 290°
2026-05-07 20:12 44.98149 -97.19908 37341 ft 418 kts 290°
2026-05-07 20:12 44.99682 -97.26380 37355 ft 418 kts 290°
2026-05-07 20:13 45.01819 -97.35435 37379 ft 418 kts 290°
2026-05-07 20:13 45.03358 -97.41976 37388 ft 418 kts 290°
2026-05-07 20:14 45.05187 -97.49778 37406 ft 418 kts 290°
2026-05-07 20:14 45.06998 -97.57532 37430 ft 418 kts 290°
2026-05-07 20:15 45.08818 -97.65347 37458 ft 418 kts 290°
2026-05-07 20:15 45.10631 -97.73164 37471 ft 418 kts 290°
2026-05-07 20:16 45.12137 -97.79676 37481 ft 418 kts 290°
2026-05-07 20:16 45.13244 -97.84478 37491 ft 418 kts 290°
2026-05-07 20:17 45.15046 -97.92314 37506 ft 418 kts 290°
2026-05-07 20:17 45.16842 -98.00152 37517 ft 418 kts 290°
2026-05-07 20:18 45.18635 -98.08007 37528 ft 419 kts 290°
2026-05-07 20:18 45.20409 -98.15809 37541 ft 419 kts 290°
2026-05-07 20:19 45.22191 -98.23670 37551 ft 418 kts 290°
2026-05-07 20:19 45.23965 -98.31529 37560 ft 418 kts 290°
2026-05-07 20:20 45.25735 -98.39394 37576 ft 418 kts 290°
2026-05-07 20:20 45.27502 -98.47275 37590 ft 418 kts 290°
2026-05-07 20:21 45.29263 -98.55161 37604 ft 418 kts 289°
2026-05-07 20:21 45.31016 -98.63042 37621 ft 418 kts 289°
2026-05-07 20:22 45.32753 -98.70877 37637 ft 418 kts 289°
2026-05-07 20:22 45.34496 -98.78767 37649 ft 418 kts 289°
2026-05-07 20:23 45.36232 -98.86659 37678 ft 418 kts 289°
2026-05-07 20:23 45.37966 -98.94567 37689 ft 418 kts 289°
2026-05-07 20:24 45.39693 -99.02478 37696 ft 419 kts 289°
2026-05-07 20:24 45.41416 -99.10395 37712 ft 419 kts 289°
2026-05-07 20:25 45.43133 -99.18319 37777 ft 417 kts 289°
2026-05-07 20:25 45.43982 -99.22250 37895 ft 414 kts 289°
2026-05-07 20:25 45.44824 -99.26153 37903 ft 413 kts 289°
2026-05-07 20:26 45.46222 -99.32649 37911 ft 412 kts 289°
2026-05-07 20:26 45.47297 -99.37658 37928 ft 412 kts 289°
2026-05-07 20:27 45.48972 -99.45486 37924 ft 414 kts 289°
2026-05-07 20:27 45.50648 -99.53352 37925 ft 415 kts 288°
2026-05-07 20:28 45.52325 -99.61250 37920 ft 417 kts 288°
2026-05-07 20:28 45.53989 -99.69121 37910 ft 418 kts 288°
2026-05-07 20:29 45.55663 -99.77067 37908 ft 419 kts 288°
2026-05-07 20:29 45.57335 -99.85035 37918 ft 419 kts 288°
2026-05-07 20:30 45.59006 -99.93031 37908 ft 420 kts 288°
2026-05-07 20:30 45.60674 -100.01042 37904 ft 421 kts 288°
2026-05-07 20:31 45.62328 -100.09015 37898 ft 421 kts 288°
2026-05-07 20:31 45.63986 -100.17043 37892 ft 421 kts 288°
2026-05-07 20:32 45.65641 -100.25089 37894 ft 422 kts 288°
2026-05-07 20:32 45.67295 -100.33159 37895 ft 422 kts 288°
2026-05-07 20:33 45.68942 -100.41232 37899 ft 423 kts 288°
2026-05-07 20:33 45.70584 -100.49310 37894 ft 423 kts 288°
2026-05-07 20:34 45.72213 -100.57357 37898 ft 423 kts 288°
2026-05-07 20:34 45.73858 -100.65517 37902 ft 424 kts 287°
2026-05-07 20:35 45.75488 -100.73635 37908 ft 425 kts 287°
2026-05-07 20:35 45.77105 -100.81723 37912 ft 425 kts 287°
2026-05-07 20:36 45.78455 -100.88500 37915 ft 425 kts 287°
2026-05-07 20:36 45.79514 -100.93829 37913 ft 426 kts 287°
2026-05-07 20:37 45.81132 -101.02007 37922 ft 426 kts 287°
2026-05-07 20:37 45.82743 -101.10183 37917 ft 426 kts 287°
2026-05-07 20:38 45.84350 -101.18371 37922 ft 427 kts 287°
2026-05-07 20:38 45.85954 -101.26577 37918 ft 427 kts 287°
2026-05-07 20:39 45.87552 -101.34789 37928 ft 427 kts 287°
2026-05-07 20:39 45.89146 -101.43017 37925 ft 428 kts 287°
2026-05-07 20:40 45.90727 -101.51210 37926 ft 428 kts 287°
2026-05-07 20:40 45.92312 -101.59459 37929 ft 428 kts 287°
2026-05-07 20:41 45.93892 -101.67723 37924 ft 429 kts 287°
2026-05-07 20:41 45.95469 -101.76003 37925 ft 429 kts 287°
2026-05-07 20:42 45.97040 -101.84287 37931 ft 430 kts 287°
2026-05-07 20:42 45.98607 -101.92582 37924 ft 430 kts 287°
2026-05-07 20:43 46.00168 -102.00897 37927 ft 430 kts 286°
2026-05-07 20:43 46.01636 -102.09192 37932 ft 431 kts 285°
2026-05-07 20:44 46.03074 -102.17578 37923 ft 431 kts 285°
2026-05-07 20:44 46.04512 -102.25977 37917 ft 431 kts 285°
2026-05-07 20:45 46.05949 -102.34363 37911 ft 432 kts 285°
2026-05-07 20:45 46.07375 -102.42709 37909 ft 432 kts 285°
2026-05-07 20:46 46.08333 -102.48332 37911 ft 432 kts 285°
2026-05-07 20:46 46.09477 -102.55071 37904 ft 432 kts 285°
2026-05-07 20:47 46.10899 -102.63489 37912 ft 432 kts 285°
2026-05-07 20:47 46.12316 -102.71914 37905 ft 432 kts 285°
2026-05-07 20:48 46.13718 -102.80291 37908 ft 432 kts 285°
2026-05-07 20:48 46.15123 -102.88729 37904 ft 432 kts 285°
2026-05-07 20:49 46.16522 -102.97173 37916 ft 432 kts 285°
2026-05-07 20:49 46.17916 -103.05626 37911 ft 433 kts 285°
2026-05-07 20:50 46.19302 -103.14077 37908 ft 433 kts 285°
2026-05-07 20:50 46.20684 -103.22542 37906 ft 433 kts 285°
2026-05-07 20:51 46.22051 -103.30957 37905 ft 433 kts 285°
2026-05-07 20:51 46.23417 -103.39411 37907 ft 432 kts 285°
2026-05-07 20:52 46.24778 -103.47875 37901 ft 433 kts 285°
2026-05-07 20:52 46.26133 -103.56350 37905 ft 432 kts 285°
2026-05-07 20:53 46.27483 -103.64828 37902 ft 432 kts 285°
2026-05-07 20:53 46.28826 -103.73310 37898 ft 432 kts 285°
2026-05-07 20:54 46.30152 -103.81735 37894 ft 432 kts 285°
2026-05-07 20:54 46.31480 -103.90208 37898 ft 432 kts 285°
2026-05-07 20:55 46.32799 -103.98669 37905 ft 431 kts 285°
2026-05-07 20:55 46.34112 -104.07131 37908 ft 431 kts 285°
2026-05-07 20:56 46.34987 -104.12799 37908 ft 430 kts 285°
2026-05-07 20:56 46.36017 -104.19500 37906 ft 430 kts 285°
2026-05-07 20:57 46.37313 -104.27966 37904 ft 430 kts 285°
2026-05-07 20:57 46.38596 -104.36390 37908 ft 430 kts 285°
2026-05-07 20:58 46.39879 -104.44863 37910 ft 430 kts 285°
2026-05-07 20:58 46.41155 -104.53332 37905 ft 430 kts 285°
2026-05-07 20:59 46.42427 -104.61819 37906 ft 430 kts 285°
2026-05-07 20:59 46.43689 -104.70288 37896 ft 430 kts 285°
2026-05-07 21:00 46.44939 -104.78717 37897 ft 430 kts 285°
2026-05-07 21:00 46.45979 -104.85774 37892 ft 430 kts 285°
2026-05-07 21:01 46.47224 -104.94255 37897 ft 429 kts 285°
2026-05-07 21:01 46.48463 -105.02741 37891 ft 429 kts 285°
2026-05-07 21:02 46.49687 -105.11178 37898 ft 429 kts 284°
2026-05-07 21:02 46.50910 -105.19652 37892 ft 429 kts 284°
2026-05-07 21:03 46.52131 -105.28155 37896 ft 429 kts 284°
2026-05-07 21:03 46.53343 -105.36648 37892 ft 429 kts 285°
2026-05-07 21:04 46.54546 -105.45128 37894 ft 428 kts 284°
2026-05-07 21:04 46.55744 -105.53613 37888 ft 428 kts 284°
2026-05-07 21:05 46.56933 -105.62088 37897 ft 428 kts 284°
2026-05-07 21:05 46.58108 -105.70504 37886 ft 428 kts 284°
2026-05-07 21:06 46.59093 -105.77605 37895 ft 427 kts 284°
2026-05-07 21:06 46.59816 -105.82836 37889 ft 427 kts 284°
2026-05-07 21:07 46.60982 -105.91312 37891 ft 427 kts 284°
2026-05-07 21:07 46.62142 -105.99789 37895 ft 427 kts 284°
2026-05-07 21:08 46.63286 -106.08201 37893 ft 427 kts 284°
2026-05-07 21:08 46.64432 -106.16684 37897 ft 427 kts 284°
2026-05-07 21:09 46.65570 -106.25151 37902 ft 426 kts 284°
2026-05-07 21:09 46.66702 -106.33618 37907 ft 426 kts 284°
2026-05-07 21:10 46.67826 -106.42083 37909 ft 426 kts 284°
2026-05-07 21:10 46.68945 -106.50563 37906 ft 425 kts 284°
2026-05-07 21:11 46.70056 -106.59024 37910 ft 425 kts 284°
2026-05-07 21:11 46.71699 -106.71643 37912 ft 423 kts 284°
2026-05-07 21:12 46.72788 -106.80068 37919 ft 422 kts 284°
2026-05-07 21:12 46.73870 -106.88489 37922 ft 422 kts 284°
2026-05-07 21:13 46.74944 -106.96899 37924 ft 422 kts 284°
2026-05-07 21:13 46.76005 -107.05260 37916 ft 422 kts 284°
2026-05-07 21:14 46.77065 -107.13663 37921 ft 421 kts 284°
2026-05-07 21:14 46.78122 -107.22100 37920 ft 421 kts 284°
2026-05-07 21:15 46.79171 -107.30517 37923 ft 421 kts 283°
2026-05-07 21:15 46.80205 -107.38877 37920 ft 421 kts 283°
2026-05-07 21:16 46.80581 -107.41921 37915 ft 421 kts 283°
2026-05-07 21:16 46.81625 -107.50429 37920 ft 420 kts 283°
2026-05-07 21:17 46.82650 -107.58842 37915 ft 420 kts 283°
2026-05-07 21:17 46.83669 -107.67246 37923 ft 420 kts 283°
2026-05-07 21:18 46.84676 -107.75613 37920 ft 420 kts 283°
2026-05-07 21:18 46.85681 -107.84014 37908 ft 420 kts 283°
2026-05-07 21:19 46.86681 -107.92428 37910 ft 420 kts 283°
2026-05-07 21:19 46.87673 -108.00836 37906 ft 420 kts 283°
2026-05-07 21:20 46.88654 -108.09203 37897 ft 419 kts 283°
2026-05-07 21:20 46.89633 -108.17607 37900 ft 419 kts 283°
2026-05-07 21:21 46.90606 -108.26011 37901 ft 419 kts 283°
2026-05-07 21:21 46.91574 -108.34432 37899 ft 419 kts 283°
2026-05-07 21:22 46.92535 -108.42848 37899 ft 419 kts 282°
2026-05-07 21:22 46.93489 -108.51262 37898 ft 419 kts 282°
2026-05-07 21:23 46.94438 -108.59682 37900 ft 419 kts 282°
2026-05-07 21:23 46.95381 -108.68112 37898 ft 419 kts 282°
2026-05-07 21:24 46.96318 -108.76546 37903 ft 420 kts 282°
2026-05-07 21:24 46.97243 -108.84928 37903 ft 420 kts 282°
2026-05-07 21:25 46.98170 -108.93390 37907 ft 420 kts 282°
2026-05-07 21:25 46.99089 -109.01844 37905 ft 420 kts 282°
2026-05-07 21:26 46.99521 -109.05839 37911 ft 420 kts 282°
2026-05-07 21:26 47.00430 -109.14287 37917 ft 419 kts 282°
2026-05-07 21:27 47.01335 -109.22750 37913 ft 419 kts 282°
2026-05-07 21:27 47.02225 -109.31142 37915 ft 419 kts 282°
2026-05-07 21:28 47.03115 -109.39591 37933 ft 419 kts 282°
2026-05-07 21:28 47.03998 -109.48037 37920 ft 419 kts 282°
2026-05-07 21:29 47.04878 -109.56504 37936 ft 419 kts 282°
2026-05-07 21:29 47.05727 -109.64926 37934 ft 420 kts 281°
2026-05-07 21:30 47.06514 -109.73417 37926 ft 420 kts 281°
2026-05-07 21:30 47.07286 -109.81915 37936 ft 419 kts 281°
2026-05-07 21:31 47.08057 -109.90412 37937 ft 419 kts 281°
2026-05-07 21:31 47.08821 -109.98850 37932 ft 419 kts 281°
2026-05-07 21:32 47.09585 -110.07334 37936 ft 419 kts 281°
2026-05-07 21:32 47.10342 -110.15818 37929 ft 419 kts 281°
2026-05-07 21:33 47.11092 -110.24293 37933 ft 419 kts 281°
2026-05-07 21:33 47.11835 -110.32773 37924 ft 418 kts 281°
2026-05-07 21:34 47.12568 -110.41201 37926 ft 418 kts 281°
2026-05-07 21:34 47.13297 -110.49657 37935 ft 417 kts 281°
2026-05-07 21:35 47.14019 -110.58117 37935 ft 417 kts 282°
2026-05-07 21:35 47.14736 -110.66582 37931 ft 418 kts 281°
2026-05-07 21:36 47.15061 -110.70449 37941 ft 418 kts 282°
2026-05-07 21:36 47.15768 -110.78912 37923 ft 417 kts 281°
2026-05-07 21:37 47.16466 -110.87357 37933 ft 416 kts 282°
2026-05-07 21:37 47.17159 -110.95794 37930 ft 415 kts 282°
2026-05-07 21:38 47.17838 -111.04146 37941 ft 413 kts 282°
2026-05-07 21:38 47.18513 -111.12531 37944 ft 413 kts 282°
2026-05-07 21:39 47.19182 -111.20912 37955 ft 412 kts 282°
2026-05-07 21:39 47.19842 -111.29266 37955 ft 411 kts 282°
2026-05-07 21:40 47.20496 -111.37625 37957 ft 410 kts 282°
2026-05-07 21:40 47.21143 -111.45960 37953 ft 409 kts 282°
2026-05-07 21:41 47.21781 -111.54269 37957 ft 408 kts 282°
2026-05-07 21:41 47.22409 -111.62527 37958 ft 408 kts 282°
2026-05-07 21:42 47.23033 -111.70810 37948 ft 407 kts 282°
2026-05-07 21:42 47.23648 -111.79071 37961 ft 406 kts 282°
2026-05-07 21:43 47.24262 -111.87338 37959 ft 406 kts 282°
2026-05-07 21:43 47.24862 -111.95547 37957 ft 405 kts 282°
2026-05-07 21:44 47.25456 -112.03776 37955 ft 404 kts 282°
2026-05-07 21:44 47.26045 -112.11997 37952 ft 403 kts 282°
2026-05-07 21:45 47.26625 -112.20190 37945 ft 401 kts 282°
2026-05-07 21:45 47.27198 -112.28355 37949 ft 400 kts 282°
2026-05-07 21:46 47.27436 -112.31765 37933 ft 400 kts 282°
2026-05-07 21:46 47.28000 -112.39912 37947 ft 399 kts 282°
2026-05-07 21:47 47.28553 -112.47993 37953 ft 399 kts 282°
2026-05-07 21:47 47.29104 -112.56121 37966 ft 398 kts 282°
2026-05-07 21:48 47.29565 -112.62929 37941 ft 399 kts 281°
2026-05-07 21:48 47.30100 -112.71046 37934 ft 397 kts 282°
2026-05-07 21:49 47.30626 -112.79076 37959 ft 396 kts 282°
2026-05-07 21:49 47.31149 -112.87153 37956 ft 395 kts 282°
2026-05-07 21:50 47.31669 -112.95220 37956 ft 395 kts 282°
2026-05-07 21:50 47.32188 -113.03340 37973 ft 397 kts 281°
2026-05-07 21:51 47.32698 -113.11452 37974 ft 398 kts 281°
2026-05-07 21:51 47.33204 -113.19588 37957 ft 399 kts 281°
2026-05-07 21:52 47.33695 -113.27652 37948 ft 397 kts 281°
2026-05-07 21:52 47.34183 -113.35717 37960 ft 393 kts 281°
2026-05-07 21:53 47.34666 -113.43744 37938 ft 394 kts 281°
2026-05-07 21:53 47.35145 -113.51794 37950 ft 394 kts 281°
2026-05-07 21:54 47.35615 -113.59814 37955 ft 395 kts 281°
2026-05-07 21:54 47.36084 -113.67926 37953 ft 394 kts 281°
2026-05-07 21:55 47.36542 -113.75940 37955 ft 395 kts 281°
2026-05-07 21:55 47.36999 -113.84015 37937 ft 395 kts 281°
2026-05-07 21:56 47.37205 -113.87777 37990 ft 392 kts 281°
2026-05-07 21:56 47.37442 -113.91799 37870 ft 393 kts 284°
2026-05-07 21:56 47.37702 -113.95793 37984 ft 391 kts 281°
2026-05-07 21:57 47.38126 -114.03831 37929 ft 394 kts 281°
2026-05-07 21:57 47.38540 -114.11908 37929 ft 395 kts 281°
2026-05-07 21:58 47.38961 -114.19994 37930 ft 396 kts 281°
2026-05-07 21:58 47.39383 -114.28091 37933 ft 396 kts 281°
2026-05-07 21:59 47.39800 -114.36143 37907 ft 396 kts 281°
2026-05-07 21:59 47.40214 -114.44237 37918 ft 395 kts 281°
2026-05-07 22:00 47.40620 -114.52310 37897 ft 394 kts 281°
2026-05-07 22:00 47.41021 -114.60367 37909 ft 393 kts 281°
2026-05-07 22:01 47.41416 -114.68415 37903 ft 393 kts 281°
2026-05-07 22:01 47.41804 -114.76467 37911 ft 393 kts 281°
2026-05-07 22:02 47.42181 -114.84461 37900 ft 393 kts 281°
2026-05-07 22:02 47.42560 -114.92499 37887 ft 392 kts 281°
2026-05-07 22:03 47.42929 -115.00515 37934 ft 390 kts 281°
2026-05-07 22:03 47.43295 -115.08519 37900 ft 391 kts 281°
2026-05-07 22:04 47.43656 -115.16547 37905 ft 391 kts 281°
2026-05-07 22:04 47.44011 -115.24583 37902 ft 392 kts 282°
2026-05-07 22:05 47.44357 -115.32598 37911 ft 390 kts 281°
2026-05-07 22:05 47.44700 -115.40629 37922 ft 392 kts 282°
2026-05-07 22:06 47.44849 -115.44151 37907 ft 394 kts 281°
2026-05-07 22:06 47.45177 -115.52214 37900 ft 392 kts 281°
2026-05-07 22:07 47.45515 -115.60242 37906 ft 391 kts 281°
2026-05-07 22:07 47.45869 -115.68257 37925 ft 390 kts 282°
2026-05-07 22:08 47.46374 -115.76245 37914 ft 391 kts 283°
2026-05-07 22:08 47.46898 -115.84272 37924 ft 391 kts 282°
2026-05-07 22:09 47.47391 -115.92230 37954 ft 392 kts 282°
2026-05-07 22:09 47.47885 -116.00255 37953 ft 392 kts 282°
2026-05-07 22:10 47.48370 -116.08288 37944 ft 392 kts 282°
2026-05-07 22:10 47.48836 -116.16243 38001 ft 384 kts 282°
2026-05-07 22:11 47.49298 -116.24164 37997 ft 388 kts 282°
2026-05-07 22:11 47.49760 -116.32081 38008 ft 389 kts 282°
2026-05-07 22:12 47.50218 -116.40130 38013 ft 395 kts 282°
2026-05-07 22:12 47.50675 -116.48251 38015 ft 395 kts 281°
2026-05-07 22:13 47.51118 -116.56291 38007 ft 389 kts 281°
2026-05-07 22:13 47.51552 -116.64230 38030 ft 386 kts 281°
2026-05-07 22:14 47.51978 -116.72083 38040 ft 384 kts 281°
2026-05-07 22:14 47.52401 -116.79969 38041 ft 385 kts 281°
2026-05-07 22:15 47.52820 -116.87885 38038 ft 386 kts 281°
2026-05-07 22:15 47.53234 -116.95827 38041 ft 388 kts 281°
2026-05-07 22:16 47.53427 -116.99571 38041 ft 388 kts 281°
2026-05-07 22:16 47.53834 -117.07551 38025 ft 389 kts 281°
2026-05-07 22:17 47.54234 -117.15502 38012 ft 389 kts 280°
2026-05-07 22:17 47.54631 -117.23510 38014 ft 390 kts 280°
2026-05-07 22:18 47.55217 -117.35538 38013 ft 391 kts 280°
2026-05-07 22:19 47.55601 -117.43565 38029 ft 391 kts 280°
2026-05-07 22:19 47.55979 -117.51557 38033 ft 390 kts 280°
2026-05-07 22:20 47.56352 -117.59572 38038 ft 390 kts 280°
2026-05-07 22:20 47.56899 -117.67518 38049 ft 386 kts 283°
2026-05-07 22:21 47.57674 -117.75388 38045 ft 386 kts 284°
2026-05-07 22:21 47.58455 -117.83247 38043 ft 385 kts 283°
2026-05-07 22:22 47.59215 -117.91110 38039 ft 385 kts 283°
2026-05-07 22:22 47.59956 -117.98925 38021 ft 386 kts 283°
2026-05-07 22:23 47.60692 -118.06789 38018 ft 385 kts 283°
2026-05-07 22:23 47.61424 -118.14677 38005 ft 386 kts 283°
2026-05-07 22:24 47.62150 -118.22560 37999 ft 386 kts 283°
2026-05-07 22:24 47.62870 -118.30442 37997 ft 386 kts 283°
2026-05-07 22:25 47.63586 -118.38335 37977 ft 386 kts 282°
2026-05-07 22:25 47.64297 -118.46234 37991 ft 387 kts 282°
2026-05-07 22:26 47.64765 -118.51467 37985 ft 387 kts 282°
2026-05-07 22:26 47.65325 -118.57778 37982 ft 387 kts 282°
2026-05-07 22:27 47.66021 -118.65655 37989 ft 387 kts 282°
2026-05-07 22:27 47.66715 -118.73589 37976 ft 388 kts 282°
2026-05-07 22:28 47.67405 -118.81533 37979 ft 388 kts 282°
2026-05-07 22:28 47.68089 -118.89485 37976 ft 388 kts 282°
2026-05-07 22:29 47.68770 -118.97450 37976 ft 389 kts 282°
2026-05-07 22:29 47.69444 -119.05419 37971 ft 389 kts 282°
2026-05-07 22:30 47.70108 -119.13323 37962 ft 388 kts 282°
2026-05-07 22:30 47.70771 -119.21289 37969 ft 388 kts 282°
2026-05-07 22:31 47.71428 -119.29241 37964 ft 388 kts 281°
2026-05-07 22:31 47.72080 -119.37208 37964 ft 388 kts 281°
2026-05-07 22:32 47.72727 -119.45177 37948 ft 388 kts 281°
2026-05-07 22:32 47.73362 -119.53074 37950 ft 387 kts 281°
2026-05-07 22:33 47.73993 -119.61012 37959 ft 386 kts 281°
2026-05-07 22:33 47.74618 -119.68938 37956 ft 386 kts 281°
2026-05-07 22:34 47.75238 -119.76852 37949 ft 385 kts 281°
2026-05-07 22:34 47.75747 -119.83413 37960 ft 384 kts 281°
2026-05-07 22:35 47.76353 -119.91287 37953 ft 383 kts 281°
2026-05-07 22:35 47.77050 -120.00428 37970 ft 383 kts 281°
2026-05-07 22:36 47.77448 -120.05698 37959 ft 383 kts 281°
2026-05-07 22:36 47.77852 -120.11045 37303 ft 393 kts 280°
2026-05-07 22:36 47.78155 -120.15085 36702 ft 392 kts 281°
2026-05-07 22:37 47.78452 -120.19112 36041 ft 391 kts 280°
2026-05-07 22:37 47.78750 -120.23133 35310 ft 392 kts 281°
2026-05-07 22:37 47.79046 -120.27160 34589 ft 393 kts 279°
2026-05-07 22:37 47.79343 -120.31219 33814 ft 396 kts 279°
2026-05-07 22:38 47.79641 -120.35304 32933 ft 399 kts 279°
2026-05-07 22:38 47.79939 -120.39427 32096 ft 401 kts 278°
2026-05-07 22:38 47.80237 -120.43561 31248 ft 404 kts 278°
2026-05-07 22:38 47.80536 -120.47728 30386 ft 407 kts 278°
2026-05-07 22:39 47.80837 -120.51947 29411 ft 411 kts 278°
2026-05-07 22:39 47.81138 -120.56188 28412 ft 414 kts 278°
2026-05-07 22:39 47.81440 -120.60459 27428 ft 417 kts 278°
2026-05-07 22:39 47.81741 -120.64759 26672 ft 415 kts 277°
2026-05-07 22:40 47.82034 -120.68958 25986 ft 412 kts 277°
2026-05-07 22:40 47.82329 -120.73190 25324 ft 409 kts 277°
2026-05-07 22:40 47.82618 -120.77378 24667 ft 407 kts 277°
2026-05-07 22:40 47.82907 -120.81568 23899 ft 406 kts 277°
2026-05-07 22:41 47.83195 -120.85785 22826 ft 413 kts 277°
2026-05-07 22:41 47.83482 -120.90018 22130 ft 408 kts 276°
2026-05-07 22:41 47.83764 -120.94200 21439 ft 404 kts 276°
2026-05-07 22:41 47.84043 -120.98341 20783 ft 399 kts 276°
2026-05-07 22:42 47.84317 -121.02441 20183 ft 394 kts 277°
2026-05-07 22:42 47.84586 -121.06482 19557 ft 390 kts 276°
2026-05-07 22:42 47.84852 -121.10492 18947 ft 387 kts 276°
2026-05-07 22:42 47.85112 -121.14458 18330 ft 384 kts 276°
2026-05-07 22:43 47.85370 -121.18393 17655 ft 381 kts 276°
2026-05-07 22:43 47.85622 -121.22263 16924 ft 380 kts 276°
2026-05-07 22:43 47.85876 -121.26171 16284 ft 377 kts 276°
2026-05-07 22:43 47.86123 -121.30040 15661 ft 374 kts 276°
2026-05-07 22:44 47.86369 -121.33876 15035 ft 369 kts 276°
2026-05-07 22:44 47.86613 -121.37650 14506 ft 364 kts 276°
2026-05-07 22:44 47.86851 -121.41411 13898 ft 363 kts 276°
2026-05-07 22:44 47.87085 -121.45146 13230 ft 362 kts 276°
2026-05-07 22:45 47.87317 -121.48845 12871 ft 352 kts 276°
2026-05-07 22:45 47.87538 -121.52385 12744 ft 336 kts 276°
2026-05-07 22:45 47.87746 -121.55737 12582 ft 323 kts 276°
2026-05-07 22:45 47.87951 -121.59027 12454 ft 311 kts 276°
2026-05-07 22:46 47.88081 -121.61133 12344 ft 304 kts 275°
2026-05-07 22:46 47.88123 -121.61812 12301 ft 301 kts 276°
2026-05-07 22:46 47.88308 -121.64841 12251 ft 288 kts 275°
2026-05-07 22:46 47.88487 -121.67775 12106 ft 278 kts 275°
2026-05-07 22:47 47.88550 -121.70606 11945 ft 271 kts 263°
2026-05-07 22:47 47.88267 -121.72388 11806 ft 270 kts 255°
2026-05-07 22:47 47.87824 -121.74457 11637 ft 271 kts 254°
2026-05-07 22:47 47.87229 -121.77161 11382 ft 278 kts 253°
2026-05-07 22:48 47.86620 -121.79916 11109 ft 282 kts 253°
2026-05-07 22:48 47.86007 -121.82698 10836 ft 283 kts 253°
2026-05-07 22:48 47.85397 -121.85480 10560 ft 282 kts 253°
2026-05-07 22:48 47.84790 -121.88259 10244 ft 280 kts 253°
2026-05-07 22:49 47.84192 -121.90998 9967 ft 276 kts 253°
2026-05-07 22:49 47.83610 -121.93665 9795 ft 267 kts 253°
2026-05-07 22:49 47.83034 -121.96313 9455 ft 266 kts 253°
2026-05-07 22:49 47.82465 -121.98924 9156 ft 264 kts 253°
2026-05-07 22:50 47.81903 -122.01500 8891 ft 260 kts 253°
2026-05-07 22:50 47.81348 -122.04043 8635 ft 258 kts 253°
2026-05-07 22:50 47.80793 -122.06583 8394 ft 257 kts 253°
2026-05-07 22:50 47.80241 -122.09110 8151 ft 257 kts 253°
2026-05-07 22:51 47.79694 -122.11605 7905 ft 256 kts 253°
2026-05-07 22:51 47.79143 -122.14124 7663 ft 256 kts 253°
2026-05-07 22:51 47.78590 -122.16643 7410 ft 256 kts 253°
2026-05-07 22:51 47.78037 -122.19166 7171 ft 256 kts 253°
2026-05-07 22:52 47.77482 -122.21687 6927 ft 257 kts 253°
2026-05-07 22:52 47.76926 -122.24212 6680 ft 257 kts 253°
2026-05-07 22:52 47.76367 -122.26744 6426 ft 258 kts 252°
2026-05-07 22:52 47.75659 -122.29192 6130 ft 260 kts 233°
2026-05-07 22:53 47.74210 -122.30762 5820 ft 264 kts 199°
2026-05-07 22:53 47.72391 -122.31297 5483 ft 267 kts 189°
2026-05-07 22:53 47.70558 -122.31554 5089 ft 270 kts 184°
2026-05-07 22:53 47.68664 -122.31615 4813 ft 269 kts 181°
2026-05-07 22:54 47.66891 -122.31618 4497 ft 268 kts 181°
2026-05-07 22:54 47.65023 -122.31622 4121 ft 267 kts 181°
2026-05-07 22:54 47.63188 -122.31637 3750 ft 260 kts 181°
2026-05-07 22:54 47.61437 -122.31653 3388 ft 242 kts 181°
2026-05-07 22:55 47.59825 -122.31667 3082 ft 221 kts 181°
2026-05-07 22:55 47.58345 -122.31679 2798 ft 204 kts 181°
2026-05-07 22:55 47.56971 -122.31692 2518 ft 191 kts 182°
2026-05-07 22:55 47.55691 -122.31703 2284 ft 177 kts 181°
2026-05-07 22:56 47.54513 -122.31713 2089 ft 162 kts 182°
2026-05-07 22:56 47.53429 -122.31723 1841 ft 148 kts 182°
2026-05-07 22:56 47.52429 -122.31731 1647 ft 142 kts 181°
2026-05-07 22:56 47.51441 -122.31742 1444 ft 141 kts 181°
2026-05-07 22:57 47.50460 -122.31750 1262 ft 142 kts 181°
2026-05-07 22:57 47.49489 -122.31758 1069 ft 144 kts 181°
2026-05-07 22:57 47.48481 -122.31768 867 ft 146 kts 182°
2026-05-07 22:57 47.47451 -122.31784 678 ft 149 kts 184°
2026-05-07 22:58 47.46422 -122.31793 489 ft 149 kts 183°
2026-05-07 22:58 47.45440 -122.31790 419 ft 132 kts 183°
2026-05-07 22:58 47.44669 -122.31800 425 ft 86 kts 180°
2026-05-07 22:58 47.44290 -122.31750 420 ft 24 kts 158°
2026-05-07 22:59 47.44199 -122.31677 425 ft 15 kts 150°
2026-05-07 22:59 47.44108 -122.31602 420 ft 16 kts 150°
2026-05-07 22:59 47.44012 -122.31519 427 ft 16 kts 149°
2026-05-07 22:59 47.43920 -122.31440 421 ft 15 kts 150°
2026-05-07 23:00 47.43831 -122.31363 428 ft 14 kts 146°
2026-05-07 23:00 47.43790 -122.31238 427 ft 14 kts 92°
2026-05-07 23:00 47.43789 -122.31084 427 ft 15 kts 89°
2026-05-07 23:00 47.43790 -122.30931 419 ft 15 kts 90°
2026-05-07 23:01 47.43791 -122.30775 426 ft 15 kts 89°
2026-05-07 23:01 47.43812 -122.30636 420 ft 13 kts 27°
2026-05-07 23:01 47.43900 -122.30632 423 ft 13 kts 359°
2026-05-07 23:01 47.43989 -122.30630 422 ft 12 kts
2026-05-07 23:02 47.44063 -122.30612 424 ft 3 kts 40°
2026-05-07 23:02 47.44066 -122.30577 422 ft 4 kts 98°
2026-05-07 23:02 47.44061 -122.30525 424 ft 6 kts 98°
2026-05-07 23:02 47.44062 -122.30468 431 ft 6 kts 72°
2026-05-07 23:03 47.44067 -122.30445 421 ft 0 kts 73°
2026-05-07 23:03 47.44068 -122.30441 425 ft 0 kts 73°
2026-05-07 23:03 47.44068 -122.30439 426 ft 0 kts 73°